Theta_e
289 292 293 293 293 293 292 291 290 290 290 289 288 288 287 288 288 288 288 288 288 288 288 286 286 287 289 293 295 299 307 317 318 321 325 328 331 331 332 335 334 337 334
288 289 291 291 291 291 291 290 289 288 288 287 286 286 286 286 287 286 286 286 286 286 285 286 285 286 286 288 291 294 297 305 308 314 322 324 326 327 328 328 332 336 338
287 287 288 289 289 289 289 289 287 287 286 285 285 284 284 285 285 285 285 285 284 285 285 285 284 284 283 285 288 289 290 296 303 309 315 323 323 325 325 327 329 331 335
286 286 287 288 287 288 289 289 287 286 285 284 285 284 284 284 284 284 285 284 284 284 284 284 284 283 283 283 285 285 286 289 297 303 311 315 318 321 321 319 320 324 328
288 287 288 288 288 288 288 288 288 287 287 285 284 284 283 283 282 283 284 284 283 282 283 283 283 284 284 284 283 283 283 284 288 294 297 299 300 295 293 293 300 313 321
288 287 288 287 287 287 288 288 288 287 287 285 284 285 282 282 281 282 284 284 283 282 281 281 283 283 283 283 284 284 283 281 283 285 284 283 285 284 288 288 293 294 305
287 287 287 287 286 287 287 287 286 286 287 286 286 285 284 280 280 280 283 285 284 282 281 280 280 281 281 282 282 283 284 284 282 283 281 281 281 282 284 287 290 291 294
286 286 286 286 285 286 286 286 286 286 285 284 284 284 284 281 280 279 282 286 284 283 281 279 278 278 280 280 280 280 283 283 283 283 283 282 283 283 283 284 286 289 295
285 285 285 285 285 285 285 285 285 285 285 284 284 283 282 281 279 279 280 281 282 282 281 280 277 277 278 280 278 278 279 281 285 286 286 285 285 285 284 283 281 282 287
283 284 285 285 284 284 284 285 286 285 284 284 283 284 282 281 279 279 278 278 278 279 280 279 278 277 277 278 277 277 276 278 281 283 284 284 285 285 284 284 282 279 280
280 283 283 284 283 284 285 285 285 285 284 284 283 284 283 281 280 279 278 277 277 277 277 276 278 277 277 277 277 277 276 280 280 282 283 283 284 284 283 284 285 283 279
278 278 279 280 282 283 283 284 284 284 283 283 282 282 283 282 279 278 278 277 276 277 276 276 277 277 277 277 277 277 277 278 280 280 279 280 280 281 283 284 284 285 285
278 277 279 279 280 282 281 281 283 282 282 281 281 281 281 281 279 277 277 277 276 276 278 277 277 277 277 277 277 277 276 276 277 277 277 278 279 281 283 284 284 285 286
279 279 280 279 280 280 282 282 280 279 279 280 279 280 278 279 276 276 276 277 276 275 277 279 278 277 277 277 277 277 277 276 275 276 277 278 280 280 280 282 282 282 282
281 281 282 282 281 281 279 278 279 277 275 275 275 278 276 275 274 274 274 274 275 275 277 277 276 276 276 276 276 275 277 276 274 275 276 276 277 278 279 280 281 280 280
281 282 282 283 283 282 282 280 274 274 273 273 273 274 275 274 273 273 274 274 274 275 276 274 273 274 273 274 274 274 275 274 274 275 275 274 274 275 277 279 279 278 277
281 281 282 280 282 281 281 280 279 275 273 272 272 272 272 272 272 273 273 274 275 275 274 273 272 272 272 273 273 273 273 274 274 274 274 274 273 274 275 276 277 277 276
279 276 280 281 281 280 280 280 279 278 278 279 273 273 272 272 272 272 273 275 275 275 273 272 272 272 272 271 272 272 272 273 273 272 273 273 273 273 274 274 274 274 275
280 281 281 281 281 279 279 280 279 279 279 279 279 275 276 274 274 273 275 274 273 273 273 272 272 272 271 271 271 271 272 272 272 271 272 271 271 271 272 273 273 273 274
280 279 278 281 281 280 280 279 279 279 278 278 278 277 275 274 276 275 275 274 273 273 272 272 272 272 271 271 271 271 271 271 270 270 270 271 270 271 272 272 272 273 273
283 283 279 280 280 281 280 279 279 278 278 277 278 274 269 272 275 275 274 274 272 272 272 271 271 271 271 270 270 270 269 270 269 269 269 268 269 269 272 272 272 273 272
283 282 282 281 281 280 280 279 278 278 277 277 277 276 273 274 275 275 274 273 273 273 273 272 271 271 270 269 269 268 268 268 268 267 267 267 268 270 271 271 271 271 272
282 281 281 281 280 279 278 279 279 278 278 277 276 276 276 275 274 274 273 274 273 272 273 272 271 270 271 270 270 269 268 267 267 266 266 265 267 268 270 270 270 269 269
281 281 280 280 280 279 279 279 278 277 276 276 276 276 275 275 275 274 274 274 273 272 272 272 271 271 270 270 270 269 269 267 266 266 265 265 265 268 268 268 269 268 269
280 280 280 280 280 279 279 278 277 277 276 276 275 275 275 275 274 274 274 274 273 272 272 272 272 271 271 270 270 270 267 264 264 264 265 265 266 267 267 267 267 267 268
279 279 279 279 279 279 278 277 277 276 275 275 275 275 275 274 274 274 274 273 273 272 272 272 272 271 271 271 270 268 266 264 265 263 263 265 266 266 266 266 265 266 268
Wind_Speed
7 8 8 9 9 8 8 10 11 11 13 15 15 16 16 16 16 15 16 16 16 17 16 15 16 17 12 11 11 11 10 12 12 11 10 8 10 11 11 13 18 18 15
6 7 8 9 9 9 9 11 12 12 13 14 15 16 16 16 17 16 17 16 16 17 18 17 17 15 16 14 11 13 11 12 9 12 12 10 13 12 13 15 15 16 16
5 7 8 9 9 9 10 10 10 11 12 13 14 15 17 16 18 16 16 16 17 17 17 17 17 19 16 14 14 12 11 11 13 7 10 8 9 10 12 15 14 13 15
4 4 5 7 8 8 9 8 9 10 11 11 11 13 15 16 18 17 15 15 16 16 17 17 18 19 18 17 13 15 14 11 12 9 7 8 7 9 9 11 12 11 16
2 4 6 6 5 7 7 8 7 8 10 11 11 12 14 14 14 15 15 15 16 17 16 17 15 23 28 23 12 15 16 13 9 9 8 8 8 8 10 9 9 14 13
4 5 6 7 7 7 7 8 8 8 8 8 10 8 11 11 26 24 16 11 14 16 16 18 18 24 24 27 25 24 21 16 15 11 9 10 12 11 11 9 9 6 10
5 6 7 7 8 9 9 9 9 9 9 10 9 10 9 15 28 27 20 9 11 14 16 17 15 15 23 18 23 23 20 21 15 12 12 11 11 13 13 10 9 9 4
6 6 7 8 9 8 9 9 9 9 10 10 11 13 13 14 28 29 22 8 10 12 14 17 19 20 24 21 16 17 16 14 15 10 11 10 10 13 12 10 12 11 5
6 7 8 8 8 8 9 9 9 8 9 9 10 12 15 15 27 28 22 14 13 12 12 14 18 18 32 33 19 18 16 16 14 18 17 18 18 21 20 9 14 11 4
6 7 7 8 8 8 8 8 8 7 8 7 9 11 13 14 23 26 23 12 14 12 14 16 25 23 29 30 17 17 16 17 16 15 14 17 17 17 22 14 11 8 6
5 7 8 8 7 8 7 8 8 7 8 9 9 9 12 13 16 23 24 13 11 10 11 12 13 27 26 28 26 17 18 16 15 13 12 12 12 13 13 13 14 10 10
4 6 6 6 6 6 8 8 8 8 8 8 8 8 8 11 17 20 22 20 19 10 11 10 12 23 24 25 19 27 25 16 11 12 12 13 13 13 12 12 13 11 3
5 4 4 4 5 5 6 7 6 7 6 7 7 7 8 8 10 19 19 21 18 11 10 13 19 20 21 15 24 26 18 13 13 12 13 12 13 13 13 13 11 12 9
4 3 3 3 3 5 4 5 5 6 6 6 7 7 8 8 10 11 10 10 15 12 13 10 11 12 13 13 12 13 11 12 12 12 13 11 11 12 12 12 10 11 8
4 3 2 3 2 2 4 5 5 6 7 7 7 8 8 9 11 16 14 11 11 12 10 8 9 10 11 11 11 12 11 11 12 11 11 13 13 12 12 12 11 11 11
5 3 2 1 0 1 1 4 5 4 3 5 8 8 7 10 15 18 18 16 17 17 9 10 10 10 11 12 12 11 11 13 12 11 10 11 11 13 13 12 11 12 13
1 1 2 2 2 2 3 3 3 6 6 4 1 3 7 9 12 14 16 15 9 12 9 9 9 10 11 11 11 11 12 11 11 11 11 11 12 12 14 11 12 11 12
4 2 3 2 2 3 3 3 4 4 5 2 8 3 3 6 8 10 13 11 7 8 8 8 9 9 10 10 11 11 11 10 11 11 11 11 11 12 12 12 12 13 13
6 5 4 4 4 3 4 4 4 5 5 5 4 7 2 10 8 8 8 7 8 8 8 8 8 8 9 9 10 10 11 10 11 11 11 11 12 12 12 12 12 15 16
6 4 4 5 4 6 5 5 5 5 5 5 5 4 5 10 5 5 5 5 6 6 7 8 8 8 8 9 9 9 10 10 10 11 11 11 12 12 12 13 12 13 12
6 7 8 6 6 5 5 5 5 5 5 5 5 5 1 6 7 5 6 5 6 6 7 7 7 7 8 8 9 10 10 10 10 11 11 11 12 12 12 12 13 12 13
6 6 6 7 5 5 6 4 5 5 6 5 5 3 6 7 5 6 5 5 5 6 6 6 6 6 7 7 8 9 10 10 10 11 11 11 11 12 11 12 12 12 12
7 7 6 6 6 4 4 7 5 5 5 6 6 6 5 5 5 5 5 5 5 5 5 5 6 6 5 6 7 8 9 9 10 10 11 11 11 11 11 12 12 13 12
7 7 7 7 5 6 5 6 5 5 6 6 5 6 6 5 5 6 5 5 5 5 6 5 6 8 7 6 7 7 8 7 9 10 12 11 12 12 11 11 12 15 13
7 6 7 7 7 6 6 6 6 6 5 5 5 5 6 5 6 6 6 5 5 6 7 7 7 9 10 11 11 10 7 9 9 11 9 12 14 15 12 11 13 14 15
7 7 6 6 6 6 5 5 5 5 5 5 6 6 6 6 7 6 6 7 7 7 9 8 9 11 12 11 11 8 8 10 10 10 10 11 11 11 11 13 17 13 14
Wind_Direction
350 340 4 0 1 2 7 10 359 357 2 1 358 355 353 354 351 349 352 353 348 344 345 340 341 335 328 325 324 314 318 306 275 263 269 265 252 240 251 231 230 225 218
351 343 357 7 5 3 11 16 4 3 9 5 360 359 357 358 353 355 357 356 353 352 350 347 347 343 339 336 324 332 327 322 310 293 264 266 261 253 247 238 250 217 222
357 356 0 7 5 5 8 22 9 9 14 9 4 2 0 359 357 358 359 2 360 356 354 351 356 350 347 342 343 347 336 329 311 290 289 285 280 268 260 262 261 253 237
344 9 342 29 4 10 7 19 14 15 16 14 7 6 4 4 360 359 358 2 5 1 358 358 2 358 357 351 357 357 346 333 327 309 292 298 323 313 297 270 262 260 272
206 47 354 28 21 21 12 11 40 19 25 18 12 11 13 7 0 356 359 5 7 3 2 358 4 7 7 10 2 3 2 352 356 342 1 349 17 353 352 336 317 315 254
40 17 27 19 20 25 24 19 30 29 42 39 17 8 24 7 6 1 360 2 11 7 4 1 2 7 7 10 10 13 13 12 7 358 19 14 3 353 337 323 313 323 309
46 40 32 20 28 25 25 24 26 27 32 35 32 13 39 18 12 2 356 15 12 12 12 5 1 5 8 8 10 9 18 18 12 9 24 19 2 352 335 331 342 283 328
58 49 45 32 35 28 29 30 26 30 31 30 30 27 19 31 13 8 357 17 18 20 18 18 9 5 9 11 9 10 6 16 11 6 17 14 7 0 353 339 326 304 291
60 53 50 32 37 32 33 31 29 32 33 35 33 29 19 30 14 14 2 9 16 21 19 24 16 10 10 11 9 11 6 6 4 7 16 19 11 12 13 4 14 353 344
45 42 47 45 37 37 31 26 32 34 34 28 34 31 34 17 25 17 9 13 11 9 11 11 18 13 15 16 15 9 3 359 353 360 12 13 14 18 13 18 17 360 4
27 44 33 30 33 28 27 27 16 33 32 27 22 27 23 32 20 15 18 14 360 6 7 4 5 5 13 17 19 14 8 350 360 360 5 7 12 10 14 14 11 2 16
69 60 50 30 18 22 27 16 19 14 27 23 16 13 20 14 21 12 13 16 6 2 1 1 353 3 9 16 17 17 9 1 2 4 7 7 4 7 8 11 6 359 2
88 67 55 52 29 19 27 16 19 12 14 11 10 10 7 14 13 8 7 8 9 0 351 1 2 4 8 11 16 15 11 7 3 9 7 4 359 355 356 3 7 1 7
131 124 108 55 34 22 16 21 25 15 5 11 3 5 357 10 11 1 358 359 0 0 342 1 6 6 15 9 10 12 15 9 4 1 359 356 357 359 0 360 355 358 356
154 157 158 126 37 87 68 18 13 54 20 357 4 345 3 2 3 357 356 354 357 347 344 5 9 9 7 10 10 9 9 8 5 360 360 356 354 352 355 0 355 356 358
166 181 53 334 5 20 317 162 114 101 69 42 24 11 349 10 353 354 353 348 359 351 7 9 11 8 8 5 4 4 3 5 1 356 357 357 354 349 347 356 354 0 354
102 118 144 263 302 322 316 320 312 185 206 193 126 26 356 339 343 347 348 336 3 358 12 11 8 4 4 2 2 0 357 1 354 351 354 355 351 347 346 352 349 354 352
165 140 225 224 259 269 277 287 284 298 310 263 201 239 306 320 318 332 341 338 360 16 7 8 3 1 0 358 358 356 353 353 355 350 352 352 351 345 344 350 346 346 341
198 209 209 231 241 291 278 271 272 279 288 295 295 202 358 331 274 273 337 2 352 357 0 359 359 359 356 355 353 350 348 351 352 348 349 349 348 342 340 344 340 341 336
220 271 258 254 239 239 254 264 274 280 290 298 302 333 356 316 331 343 349 5 345 349 352 349 351 355 351 353 346 346 345 349 353 350 346 345 344 335 337 339 337 337 340
218 194 216 249 249 247 263 268 278 282 289 300 304 87 37 293 317 336 335 4 347 342 347 345 341 349 345 351 343 341 343 342 350 346 342 342 336 327 334 335 330 336 332
235 234 223 232 253 251 259 291 283 290 293 297 308 166 215 261 328 325 344 354 333 338 337 340 335 341 342 347 337 333 337 336 347 341 337 335 327 323 332 326 329 333 329
247 242 250 246 249 258 253 252 277 281 296 307 305 304 314 319 321 325 334 331 337 333 331 324 326 326 339 335 329 325 326 337 338 332 326 327 321 317 328 324 330 329 332
238 240 246 253 250 265 284 282 287 287 276 286 304 308 307 312 314 315 316 328 326 332 321 320 311 313 324 318 323 318 319 348 321 315 329 314 314 317 323 325 325 329 321
249 238 246 252 259 256 270 270 277 292 294 291 296 300 305 307 301 307 312 314 310 301 308 314 309 310 315 322 308 309 353 325 303 310 311 314 302 320 323 322 329 316 322
225 234 247 257 262 262 264 271 278 288 290 288 289 289 294 291 288 291 294 293 293 302 309 294 299 307 312 309 315 357 337 310 304 317 307 303 308 323 322 325 324 316 324